Theta_e
307 307 307 306 305 303 304 306 306 307 307 305 303 302 302 301 301 300 296 297 295 289 289 290 291 288 288 288 284 287 287 290 290 286 286 285 283 287 285 288 287 285 284 284 284 282 280 297 295 288 295 298 299 298
307 307 306 305 305 303 304 305 306 307 307 305 303 302 302 302 301 301 295 298 298 291 289 293 294 294 293 293 290 290 288 288 290 289 289 288 284 287 285 282 290 285 289 286 287 288 296 297 296 299 300 299 299 297
308 307 306 305 304 303 304 305 306 307 306 305 303 302 301 301 302 301 298 298 295 290 290 288 290 294 296 295 297 288 290 292 292 296 291 290 285 289 283 286 288 290 293 289 289 292 294 296 298 300 301 300 300 300
307 307 306 305 304 303 303 305 306 306 306 305 303 302 302 302 302 301 297 298 295 290 283 288 295 294 298 297 295 295 294 296 297 298 292 288 286 292 287 289 288 291 292 290 290 293 294 297 299 300 299 300 299 298
307 307 306 305 304 303 303 304 305 306 306 305 304 302 302 302 302 301 299 298 298 291 286 288 294 296 298 297 295 294 292 292 291 292 290 289 290 291 292 291 288 293 290 287 287 293 291 295 300 300 298 297 297 296
306 306 306 305 304 303 303 303 303 305 306 305 304 302 301 301 301 296 291 298 299 297 288 284 294 294 296 297 296 295 293 292 292 292 292 294 297 291 287 287 293 295 294 295 293 297 296 299 301 299 295 294 295 295
306 305 305 304 303 302 302 302 303 305 306 304 302 301 300 301 299 292 290 297 298 297 289 286 288 294 295 296 300 295 294 293 293 292 291 293 293 293 288 286 291 292 294 295 298 300 295 297 294 295 295 296 295 295
306 305 304 303 303 302 302 302 303 305 305 302 300 301 301 301 300 295 299 300 299 294 293 285 286 290 296 294 294 300 293 294 294 294 295 293 293 292 287 290 291 291 292 296 297 300 299 298 297 295 296 295 293 293
306 305 304 303 303 303 302 303 303 305 302 299 299 301 300 297 293 296 303 303 300 294 288 288 285 284 295 294 295 294 298 291 298 292 292 292 290 287 288 289 288 289 292 297 299 298 297 296 295 295 295 293 291 290
305 305 304 303 303 302 302 302 303 302 298 298 298 296 293 295 302 304 299 294 294 294 293 286 291 287 292 292 291 293 295 292 288 293 293 287 289 291 290 290 290 293 295 300 297 295 295 295 294 294 293 293 291 291
305 304 304 303 303 302 303 303 301 298 297 292 289 290 293 298 297 293 289 289 290 286 290 289 290 288 294 288 288 292 290 292 287 289 289 287 286 288 290 290 292 293 296 299 302 298 298 296 295 293 292 292 291 292
305 304 304 303 303 303 303 301 298 295 292 292 292 295 294 292 289 285 285 289 288 285 290 288 290 291 293 294 289 291 288 290 286 293 289 284 288 289 289 290 291 293 294 298 303 298 297 297 296 294 292 291 291 292
304 304 303 303 303 303 303 299 297 297 298 296 292 290 289 289 284 283 282 285 285 290 292 292 289 291 292 293 292 290 286 286 293 287 284 286 288 289 289 290 290 292 295 298 301 299 297 297 297 295 292 293 292 292
304 303 303 303 303 303 300 299 297 298 294 290 288 283 285 284 286 287 286 286 289 291 290 289 288 289 291 290 290 286 288 290 283 280 281 286 287 288 289 290 290 291 294 297 300 298 297 296 295 295 294 293 292 292
303 303 303 302 302 301 299 298 299 297 292 289 289 282 284 289 288 288 288 289 290 291 290 288 290 291 288 287 286 285 283 280 280 279 283 287 289 289 289 289 290 292 294 295 300 297 297 296 295 294 295 294 293 293
303 302 300 302 301 299 298 298 296 294 292 290 288 285 286 286 286 287 288 290 292 291 290 291 287 285 282 283 281 277 278 277 280 284 287 288 287 289 289 290 292 293 294 297 300 299 298 297 295 295 295 295 294 293
301 296 302 301 299 297 297 294 293 290 289 286 285 288 288 288 288 289 291 292 293 290 287 287 282 279 285 280 277 282 279 282 285 286 288 288 288 289 290 291 291 293 294 296 299 299 299 299 296 295 293 294 295 294
295 300 300 298 296 295 294 293 291 289 285 287 285 287 289 289 290 291 291 292 292 290 289 285 287 282 279 276 279 283 286 286 287 287 288 289 290 291 292 290 292 292 293 294 295 299 298 297 294 294 294 295 295 294
299 298 298 297 294 293 289 289 292 287 288 289 289 291 291 289 289 289 291 290 291 291 288 286 282 281 281 286 285 285 286 286 285 287 288 289 290 290 291 291 292 291 292 292 294 294 297 297 296 295 295 294 293 293
299 298 298 296 296 293 290 290 294 288 286 288 291 290 290 288 288 288 288 288 288 287 285 283 283 284 286 287 288 288 287 287 287 285 285 287 289 289 289 290 290 291 290 291 292 292 294 296 297 297 295 294 293 292
296 295 296 295 292 292 291 289 289 289 288 289 290 290 286 288 287 287 286 287 286 284 283 287 287 289 291 289 290 289 288 288 286 288 287 285 287 288 289 290 291 291 289 288 288 290 291 293 295 297 297 294 295 295
293 296 292 292 290 291 290 292 289 290 289 290 289 289 286 286 285 286 287 285 284 286 288 288 289 290 289 288 287 288 288 289 289 289 289 288 286 287 287 288 288 288 288 287 287 288 289 291 293 296 298 297 296 295
295 294 292 292 288 288 286 292 287 287 286 287 289 287 286 286 286 288 283 285 286 289 290 291 291 291 290 288 286 286 287 287 288 287 288 288 288 288 288 288 289 287 285 286 288 288 288 288 290 294 298 298 296 295
296 290 286 286 287 284 289 286 288 287 286 286 286 284 285 285 286 285 282 284 286 289 289 289 290 288 288 287 285 284 285 287 289 288 287 286 286 286 287 287 288 287 286 286 287 288 288 288 288 291 295 296 296 294
285 285 287 283 287 285 283 284 285 285 283 284 285 284 285 287 283 283 283 284 285 287 289 290 289 288 287 286 285 284 285 286 287 286 285 286 285 285 285 286 287 288 286 284 285 285 286 287 287 287 289 292 294 294
280 284 283 284 284 284 284 282 283 284 284 284 285 287 287 286 283 282 285 285 286 287 289 288 287 287 286 286 285 284 284 285 287 286 285 285 284 283 282 282 283 285 285 285 285 284 284 285 285 286 287 288 288 294
279 281 285 290 288 287 286 287 287 286 284 283 285 285 285 281 282 285 285 287 287 289 290 290 289 288 286 284 285 285 285 285 285 285 285 285 285 284 283 281 281 283 284 285 285 284 283 283 283 284 285 287 288 291
284 285 282 285 285 287 284 284 284 284 285 288 288 284 283 283 283 286 287 288 290 290 289 289 290 289 285 284 284 284 284 285 285 286 285 285 284 284 283 284 285 282 285 285 284 285 284 283 284 284 284 285 287 289
283 286 286 283 284 285 285 285 285 287 290 289 285 283 283 284 284 286 286 288 289 288 286 285 284 284 284 284 284 284 284 284 283 281 280 280 280 281 282 283 284 284 285 284 283 282 282 282 283 284 285 285 286 287
283 288 284 284 282 282 286 287 286 287 287 286 285 284 283 283 284 287 287 287 287 287 287 286 284 283 282 283 282 282 283 283 282 281 279 278 279 281 282 282 283 283 284 284 283 284 282 284 284 285 285 285 283 283
286 286 285 284 284 287 286 287 287 286 285 284 285 283 282 283 285 285 285 285 285 285 284 283 283 284 283 283 283 282 281 283 282 281 281 282 281 281 281 281 282 283 284 283 283 282 281 281 281 281 281 281 281 281
285 284 284 282 283 286 289 287 285 283 283 283 282 284 283 282 280 283 285 285 284 284 283 284 284 284 285 285 284 284 283 283 283 282 281 281 280 280 280 280 281 282 282 282 282 281 280 279 279 278 278 278 279 279
284 284 286 285 284 284 287 285 283 282 282 282 282 282 281 281 278 283 286 286 286 285 285 285 285 284 284 284 284 282 283 282 280 278 278 277 277 277 279 279 280 281 281 281 281 281 279 278 277 277 276 276 277 278
Wind_Speed
19 18 18 15 12 10 13 12 10 10 8 7 5 7 7 6 5 0 1 4 2 3 8 6 4 6 4 4 3 3 4 3 3 1 2 2 2 3 4 3 4 3 3 3 3 6 8 4 3 5 11 19 20 19
20 20 19 17 14 13 15 14 10 9 9 8 5 7 8 7 6 1 2 2 3 4 6 4 15 18 19 13 3 3 4 3 1 1 1 2 2 2 4 4 3 4 4 2 6 6 6 8 13 17 17 19 20 15
21 20 20 19 17 15 15 13 11 9 10 7 6 7 8 8 7 4 2 1 2 4 5 4 5 2 7 15 14 4 3 3 3 1 1 2 4 1 3 4 5 4 2 6 6 6 12 14 18 19 18 19 21 17
22 21 21 20 18 14 14 14 11 9 9 8 5 6 9 10 9 6 2 2 1 2 4 4 3 7 4 8 16 18 7 2 4 2 2 2 3 3 3 6 10 8 6 7 12 17 13 13 16 18 20 19 21 19
22 22 21 20 18 15 14 12 11 11 10 8 7 6 10 9 8 5 3 4 5 2 4 6 12 2 3 7 12 13 13 10 4 3 3 3 3 4 3 4 5 1 3 3 5 13 15 17 21 23 19 24 24 22
22 23 22 21 18 17 15 13 13 13 11 8 6 5 8 8 3 1 2 3 5 5 2 4 4 4 5 7 8 11 8 7 5 3 3 3 4 4 3 4 1 13 16 15 12 13 15 23 19 21 22 22 17 18
23 23 23 23 20 18 17 15 15 14 11 7 4 6 6 8 4 4 1 2 7 2 2 4 4 3 5 4 1 3 7 3 4 2 4 3 2 5 2 2 15 21 19 19 14 14 17 16 18 22 20 15 17 16
23 24 25 23 21 20 18 17 15 14 8 3 3 7 8 9 5 5 5 10 8 2 2 3 4 4 4 3 1 2 4 3 5 3 2 2 1 1 2 13 21 22 20 11 15 13 14 14 21 19 16 13 15 13
22 25 26 24 23 21 19 17 14 12 7 1 7 10 1 2 4 2 5 13 3 2 2 2 3 4 4 2 2 2 3 3 2 3 2 2 1 4 9 14 19 22 15 16 17 14 13 17 21 16 15 12 14 14
22 25 25 24 22 21 18 15 14 11 7 2 1 2 4 3 3 12 3 4 4 3 2 3 2 3 2 2 2 3 1 2 2 2 4 1 2 6 13 17 14 17 20 20 18 18 17 21 18 17 16 13 13 13
23 25 25 24 23 20 18 14 14 12 4 2 3 2 2 3 2 1 3 3 3 3 3 4 5 4 1 3 3 3 2 1 2 2 1 2 3 13 19 19 19 20 22 22 16 13 15 17 16 17 17 14 12 15
23 24 23 23 21 19 14 18 16 5 3 2 2 2 2 3 2 3 3 3 4 3 4 4 3 4 2 2 3 3 2 2 1 2 1 2 5 19 18 22 22 21 22 23 20 13 15 17 14 14 14 14 14 14
22 23 24 22 20 18 20 20 14 10 7 2 2 3 3 3 4 5 7 3 3 3 4 2 2 1 2 2 4 2 3 2 3 3 2 3 12 16 18 18 21 21 21 21 19 14 16 17 16 15 15 12 13 13
23 26 25 21 19 17 22 20 16 8 2 3 5 5 5 5 5 4 3 3 2 2 1 1 0 1 1 2 1 2 2 2 2 3 4 7 16 18 18 17 16 21 21 20 19 13 14 15 12 11 12 12 13 13
25 25 23 20 15 23 22 19 14 2 3 3 3 4 6 1 2 3 2 3 2 1 1 2 2 0 2 1 3 2 2 3 3 3 5 10 17 17 17 17 18 18 18 18 17 12 14 15 14 12 12 13 13 13
25 21 8 16 24 24 21 13 4 2 2 3 4 2 1 3 3 3 2 2 1 1 2 1 2 2 3 2 3 4 3 3 3 6 8 11 15 15 16 16 16 16 17 16 15 12 12 14 14 12 12 12 13 15
15 1 23 27 26 23 17 4 3 5 4 3 2 1 1 2 3 3 2 2 1 2 1 1 2 2 1 3 2 1 2 5 7 7 7 10 13 14 15 15 16 15 15 16 16 13 11 11 11 12 15 16 14 13
4 19 31 30 19 13 1 2 3 4 5 3 3 4 2 2 4 3 2 1 1 2 1 2 2 2 3 3 2 1 2 5 5 6 7 10 12 12 12 14 14 14 14 14 15 14 14 12 11 9 13 13 13 15
16 18 31 28 11 6 6 5 3 4 3 2 3 3 4 5 4 3 3 4 4 3 4 2 3 2 3 1 2 1 3 3 5 6 6 9 10 14 12 13 13 13 14 14 14 11 10 12 9 8 8 8 9 11
27 29 28 20 6 3 4 3 2 2 4 3 3 4 4 4 3 4 4 3 3 2 3 2 2 3 3 3 1 2 3 3 4 5 7 7 7 11 12 11 9 11 10 12 11 12 10 10 11 9 7 7 8 9
17 14 15 2 1 0 0 3 3 2 4 3 5 3 4 3 3 2 3 1 3 2 2 2 5 5 5 4 1 2 3 3 4 4 3 6 8 8 9 9 10 8 9 9 10 10 11 9 10 9 7 6 6 7
6 13 2 2 1 1 1 1 2 3 2 4 4 3 4 3 3 2 3 2 2 2 2 5 5 5 5 3 3 4 4 4 4 4 4 6 7 7 8 8 9 8 9 8 9 10 9 9 9 10 9 8 6 6
10 3 2 2 2 1 2 2 2 3 4 5 3 4 3 3 3 3 3 2 2 2 4 6 7 7 7 5 4 4 5 5 3 5 6 6 6 7 7 8 8 9 10 9 9 8 9 12 11 10 10 8 6 5
7 3 4 4 3 3 2 3 1 3 3 3 4 4 4 3 4 1 3 3 3 5 5 8 6 6 4 4 3 4 4 4 3 4 6 6 6 7 7 7 7 8 8 8 8 9 9 9 12 10 10 10 8 6
4 3 3 3 2 3 4 4 3 2 3 4 4 4 4 4 3 3 3 5 7 7 7 6 5 4 4 3 2 3 4 3 3 3 5 6 6 6 7 7 7 7 10 9 10 11 11 10 9 10 10 9 11 8
3 5 5 6 3 4 5 4 5 4 4 4 3 4 3 3 4 4 3 6 7 8 8 7 7 5 4 3 3 3 4 3 2 2 4 5 7 7 8 9 9 8 10 10 10 13 13 13 13 14 11 12 10 9
3 4 2 1 2 3 2 2 2 2 4 4 5 4 4 4 5 2 2 4 5 6 7 7 6 6 6 5 3 3 3 2 2 3 3 3 4 6 6 7 10 10 11 11 11 12 13 13 13 13 12 10 9 9
0 1 4 4 2 1 2 3 4 5 4 4 6 5 7 2 2 2 2 4 7 8 8 6 5 7 7 6 4 4 5 3 4 3 2 3 4 5 8 6 7 11 9 9 10 10 11 11 11 12 12 11 10 9
2 1 3 5 3 2 2 4 3 1 2 4 4 3 3 3 2 1 3 6 8 9 8 8 7 8 7 6 5 5 5 5 7 9 9 6 6 6 8 8 8 8 8 9 9 8 13 11 11 11 11 9 9 8
3 2 3 5 4 4 2 3 3 3 4 4 5 4 4 3 3 2 6 7 7 7 6 7 9 8 7 6 6 5 5 5 5 5 5 6 6 7 8 8 9 9 9 10 11 12 12 10 10 10 11 10 9 9
3 4 3 2 2 2 4 6 8 5 4 4 5 5 6 5 3 5 4 3 6 7 8 8 7 6 6 6 4 4 4 3 4 4 4 3 5 6 7 8 7 7 8 10 10 11 13 12 12 13 14 16 16 13
3 3 3 3 2 4 4 2 3 3 3 3 3 3 3 3 4 2 2 2 5 6 5 7 7 5 4 5 5 6 6 4 3 4 6 5 6 7 7 7 7 7 8 9 9 10 13 13 12 13 13 16 17 17
3 2 1 3 4 4 3 4 3 3 3 2 3 3 3 3 4 2 2 2 1 5 6 5 5 6 8 8 8 7 6 6 7 5 5 5 5 7 6 7 7 8 9 8 9 10 12 14 13 15 15 16 16 17
Wind_Direction
217 215 215 214 213 229 257 256 265 273 270 276 293 299 304 307 315 111 289 193 264 262 281 244 217 228 237 220 251 354 277 184 283 19 331 16 298 344 291 284 301 239 230 224 227 244 262 143 212 275 322 304 298 300
217 212 211 205 204 223 240 245 248 263 257 263 275 287 295 295 299 276 259 189 194 235 272 263 265 259 245 242 264 236 311 281 326 316 179 249 293 301 348 294 203 255 225 263 225 248 292 269 278 289 285 287 297 291
212 212 209 202 200 211 234 235 232 241 248 252 263 284 289 288 287 256 227 195 212 271 281 275 232 170 218 228 219 241 225 268 208 213 312 296 267 206 270 253 290 273 260 251 292 269 272 298 299 294 296 298 300 286
211 209 208 200 195 202 226 237 228 229 239 239 240 265 280 281 280 267 214 173 235 281 287 276 304 293 237 193 198 216 248 8 294 202 264 245 249 224 256 281 280 282 298 258 270 286 313 285 299 300 303 302 300 290
213 204 201 198 191 192 216 229 244 239 233 229 225 246 273 283 283 278 229 214 210 256 298 293 305 237 225 192 210 210 221 237 278 279 215 231 227 253 251 273 260 257 268 270 276 288 281 286 304 303 316 319 310 303
214 201 193 191 189 189 197 214 240 248 239 228 227 244 271 276 281 268 249 180 198 198 257 291 312 266 289 264 233 210 195 197 220 234 249 225 225 200 254 250 314 360 325 297 287 289 272 279 310 331 317 310 307 300
215 201 190 185 191 193 199 207 232 247 238 224 224 262 273 265 212 217 331 47 167 153 250 284 285 271 308 299 155 122 176 188 196 232 239 244 238 202 261 291 334 320 319 320 309 311 318 329 327 315 312 308 307 296
215 202 188 186 191 198 201 209 226 248 218 177 276 284 274 249 246 261 229 182 162 210 242 288 283 290 12 312 306 175 156 220 188 243 225 207 32 320 295 331 325 315 319 300 304 325 309 317 309 316 308 304 305 300
214 198 190 186 192 196 199 212 223 240 146 114 285 290 187 147 193 229 176 180 170 277 309 269 294 313 356 303 277 274 238 199 165 235 209 90 69 50 318 317 318 316 311 295 316 322 324 314 314 324 323 331 324 322
209 195 192 187 187 188 198 214 234 148 122 261 262 221 207 185 254 134 167 168 195 196 217 251 261 273 303 301 300 289 253 245 241 201 87 104 114 6 338 327 320 325 329 332 331 330 331 330 335 333 338 333 319 311
205 193 188 184 180 186 199 211 147 122 107 121 200 217 57 313 124 148 206 222 149 212 206 238 237 272 210 262 297 282 306 238 253 75 226 93 4 348 336 335 340 338 336 334 326 320 331 331 335 337 336 338 329 333
198 189 181 175 178 182 189 150 141 128 147 178 125 101 143 169 156 201 194 181 216 233 191 218 242 223 272 254 252 237 277 281 281 286 104 54 12 344 335 338 337 336 333 333 343 339 342 345 342 337 335 343 345 335
188 174 165 170 176 176 160 146 142 133 140 149 192 161 191 153 193 208 182 176 206 193 202 212 272 272 230 244 263 302 297 337 298 32 54 59 341 335 334 334 333 333 333 337 345 357 356 350 346 341 340 346 342 343
172 164 164 170 163 154 148 145 152 154 172 201 174 179 217 180 225 192 171 136 127 174 164 215 217 310 18 264 310 277 337 298 50 34 27 355 337 330 330 330 331 332 333 335 342 353 1 352 347 351 353 1 354 355
162 160 157 162 167 150 145 148 161 134 191 219 192 206 202 197 82 114 96 124 106 79 163 144 129 29 29 349 16 326 21 67 35 11 330 330 328 330 327 330 332 334 335 333 347 347 2 358 358 3 2 4 4 9
143 134 156 159 143 138 139 146 112 191 232 229 228 196 130 147 126 126 118 116 83 90 131 124 112 108 58 20 47 31 335 34 4 335 326 321 324 327 327 329 333 334 336 336 352 350 4 9 3 357 4 6 12 12
126 147 145 136 133 136 138 120 172 206 220 205 220 188 181 100 113 110 136 101 125 194 110 137 90 75 120 62 82 43 27 334 331 324 320 318 324 326 325 332 335 341 341 342 352 358 358 16 9 9 15 4 12 16
78 131 131 129 126 129 59 210 218 195 209 203 191 156 126 70 111 111 87 30 204 101 106 85 115 106 74 123 147 44 338 327 309 325 320 320 325 327 335 337 336 340 347 352 358 3 358 8 19 24 18 14 14 15
134 135 134 139 147 141 161 184 219 201 197 150 116 109 95 97 69 76 93 69 73 80 112 97 93 102 131 112 98 31 322 326 318 319 320 335 332 339 342 340 343 346 351 357 3 6 357 2 9 9 26 10 19 22
132 138 141 156 176 173 140 132 195 191 175 139 118 119 97 93 104 86 84 55 52 59 68 67 91 119 120 111 74 293 325 326 307 338 354 351 346 338 346 345 349 347 351 350 359 4 0 5 2 3 13 22 10 12
107 136 149 149 228 243 63 146 160 184 133 122 124 119 96 123 105 104 91 49 70 56 116 116 128 121 114 112 76 353 353 358 337 329 346 346 342 343 344 345 353 357 1 354 352 352 2 360 347 342 353 15 12 359
108 154 120 215 221 150 135 168 96 120 107 126 130 114 122 136 136 120 121 75 87 126 147 140 138 134 135 117 34 10 355 334 351 345 4 346 353 354 351 351 358 357 359 353 345 346 344 346 345 341 354 350 7 27
125 153 176 148 72 358 94 160 145 154 133 157 136 116 121 122 101 143 89 98 131 128 136 130 118 110 113 101 50 40 17 8 24 22 3 359 357 0 357 355 4 3 356 350 344 343 340 335 341 348 354 4 12 36
169 126 143 186 191 159 144 160 130 123 107 161 147 114 130 124 161 174 129 145 149 153 145 136 134 123 121 104 43 20 12 354 24 26 11 359 6 9 4 1 2 12 2 333 341 343 346 345 342 351 355 3 7 24
127 181 153 181 196 151 156 146 153 167 132 150 127 131 150 157 150 188 185 169 170 169 157 148 138 142 135 111 73 41 28 8 27 20 24 13 5 5 11 9 8 19 2 348 351 350 349 348 347 348 348 360 358 358
138 188 174 179 153 181 162 152 176 157 138 139 114 113 155 146 172 209 192 164 166 168 164 151 142 136 121 86 73 25 9 355 311 57 47 26 25 14 5 0 356 0 2 349 345 346 346 346 343 346 344 346 343 354
127 190 185 268 146 137 132 87 113 153 161 157 151 153 162 171 209 135 110 156 146 146 145 140 149 147 134 123 95 32 7 8 14 61 46 32 33 26 9 357 349 343 335 346 346 345 342 341 338 337 335 335 334 335
223 178 160 170 125 67 138 163 164 188 170 147 148 170 170 174 118 109 96 135 130 125 113 115 118 126 121 108 88 58 40 47 81 156 230 70 42 23 5 351 345 330 332 348 344 343 346 340 337 334 332 329 325 327
182 176 94 102 82 256 242 206 210 88 50 161 124 115 108 58 29 26 108 133 129 127 123 120 116 117 111 104 87 67 50 37 53 55 44 25 6 5 357 350 348 349 349 344 347 345 346 337 337 336 334 331 327 327
156 117 114 160 178 214 88 350 83 70 39 73 101 111 94 62 25 50 124 132 140 135 135 142 146 150 144 138 122 98 59 48 41 38 26 14 353 335 341 346 349 349 347 348 350 350 354 350 359 1 359 359 354 344
134 175 175 149 180 77 99 106 86 74 55 56 46 84 104 121 78 39 48 81 114 125 131 139 144 148 144 143 135 132 118 85 78 63 26 1 350 349 350 345 344 344 350 353 355 359 359 359 5 2 359 358 354 350
169 183 189 131 107 136 133 51 86 86 71 69 83 93 102 95 93 78 30 112 134 131 133 151 153 150 139 117 103 92 83 103 78 43 19 6 1 357 351 350 345 350 354 359 4 5 4 5 4 4 0 359 353 349
158 188 133 112 143 181 155 116 97 93 85 98 93 77 54 72 106 103 80 22 115 139 136 119 107 111 119 115 110 102 87 83 84 68 51 36 21 3 358 359 352 358 360 5 8 9 11 8 6 8 9 5 3 360